N2UFM Weather Reports


Display with metric or nautical units.
time (UTC)temp
F
wind
direction
speed
MPH
gust
MPH
rain 1hr
in
rain 24hr
in
rain mn
in
humidity
%
barometer
mb
20260506182516 68 295 2.0 14.0 0.00 0.02 0.02 75 1008.6
20260506182016 68 273 2.0 14.0 0.00 0.02 0.02 75 1008.6
20260506181515 68 227 3.0 14.0 0.00 0.02 0.02 76 1008.7
20260506181015 68 244 2.0 14.0 0.00 0.02 0.02 77 1008.7
20260506180515 68 225 1.0 14.0 0.00 0.02 0.02 78 1008.7
20260506180015 68 225 1.0 14.0 0.00 0.02 0.02 78 1008.8
20260506175515 68 206 1.0 14.0 0.00 0.02 0.02 79 1008.9
20260506175015 68 203 0.0 14.0 0.01 0.02 0.02 79 1008.7
20260506174515 68 210 1.0 14.0 0.01 0.02 0.02 79 1008.7
20260506174014 68 215 1.0 14.0 0.01 0.02 0.02 80 1008.7
20260506173514 68 212 0.0 14.0 0.01 0.02 0.02 80 1008.8
20260506173014 68 156 1.0 14.0 0.01 0.02 0.02 81 1008.9
20260506172514 67 227 1.0 14.0 0.01 0.02 0.02 82 1008.9
20260506172014 67 207 0.0 14.0 0.01 0.02 0.02 83 1008.9
20260506171514 67 198 0.0 14.0 0.02 0.02 0.02 83 1008.9
20260506171014 67 221 1.0 14.0 0.02 0.02 0.02 82 1009.1
20260506170514 66 221 1.0 14.0 0.02 0.02 0.02 82 1009.2
20260506170014 66 228 0.0 14.0 0.02 0.02 0.02 81 1009.5
20260506165513 66 220 2.0 14.0 0.02 0.02 0.02 82 1009.7
20260506165013 66 215 0.0 14.0 0.01 0.01 0.01 81 1009.9
20260506164513 66 197 1.0 14.0 0.01 0.01 0.01 82 1010.0
20260506164013 66 224 2.0 14.0 0.01 0.01 0.01 81 1010.1
20260506163513 66 217 1.0 14.0 0.01 0.01 0.01 80 1010.1
20260506163013 67 222 1.0 14.0 0.01 0.01 0.01 79 1010.0
20260506162512 67 245 2.0 14.0 0.01 0.01 0.01 77 1010.1
20260506162012 68 259 2.0 14.0 0.01 0.01 0.01 75 1010.3
20260506161512 69 195 1.0 14.0 0.00 0.00 0.00 73 1010.2
20260506161012 70 254 3.0 14.0 0.00 0.00 0.00 70 1010.3
20260506160512 71 219 1.0 14.0 0.00 0.00 0.00 67 1010.4
20260506160012 71 260 2.0 14.0 0.00 0.00 0.00 65 1010.2
20260506155512 71 225 3.0 14.0 0.00 0.00 0.00 64 1010.2
20260506155011 72 276 2.0 14.0 0.00 0.00 0.00 63 1010.3
20260506154511 72 227 3.0 14.0 0.00 0.00 0.00 63 1010.3
20260506154011 72 228 3.0 14.0 0.00 0.00 0.00 63 1010.3
20260506153511 72 264 1.0 14.0 0.00 0.00 0.00 64 1010.2
20260506153011 71 212 5.0 14.0 0.00 0.00 0.00 64 1010.2
20260506152511 71 237 3.0 14.0 0.00 0.00 0.00 65 1010.1
20260506152010 71 216 6.0 14.0 0.00 0.00 0.00 64 1010.1
20260506151511 71 273 2.0 14.0 0.00 0.00 0.00 64 1010.4
20260506151010 72 241 3.0 14.0 0.00 0.00 0.00 64 1010.5
20260506150510 72 232 5.0 14.0 0.00 0.00 0.00 63 1010.4
20260506150010 72 212 3.0 14.0 0.00 0.00 0.00 63 1010.6
20260506145510 72 224 3.0 14.0 0.00 0.00 0.00 63 1010.5
20260506145010 73 273 2.0 14.0 0.00 0.00 0.00 62 1010.5
20260506144509 73 166 1.0 14.0 0.00 0.00 0.00 63 1010.5
20260506144009 73 255 5.0 14.0 0.00 0.00 0.00 63 1010.3
20260506143509 73 232 5.0 14.0 0.00 0.00 0.00 63 1010.4
20260506143009 73 237 2.0 14.0 0.00 0.00 0.00 64 1010.4
20260506142509 72 271 1.0 14.0 0.00 0.00 0.00 65 1010.3
20260506142009 72 271 1.0 14.0 0.00 0.00 0.00 65 1010.3
20260506141508 71 271 1.0 14.0 0.00 0.00 0.00 65 1010.2
20260506141008 71 228 1.0 14.0 0.00 0.00 0.00 65 1010.3
20260506140508 72 250 5.0 14.0 0.00 0.00 0.00 65 1010.3
20260506140008 72 195 2.0 14.0 0.00 0.00 0.00 66 1010.3
20260506135508 71 262 2.0 14.0 0.00 0.00 0.00 65 1010.3
20260506135008 71 228 3.0 14.0 0.00 0.00 0.00 66 1010.5
20260506134507 71 254 3.0 14.0 0.00 0.00 0.00 66 1010.4
20260506134007 71 229 3.0 14.0 0.00 0.00 0.00 66 1010.6
20260506133507 71 261 1.0 14.0 0.00 0.00 0.00 66 1010.6
20260506133007 71 226 2.0 14.0 0.00 0.00 0.00 68 1010.6
20260506132507 71 233 2.0 14.0 0.00 0.00 0.00 68 1010.6
20260506132007 70 263 1.0 14.0 0.00 0.00 0.00 69 1010.7
20260506131507 70 218 2.0 14.0 0.00 0.00 0.00 69 1010.8
20260506131006 69 204 1.0 14.0 0.00 0.00 0.00 70 1010.7
20260506130506 69 201 3.0 14.0 0.00 0.00 0.00 70 1010.8
20260506130006 69 212 1.0 14.0 0.00 0.00 0.00 71 1010.8
20260506125506 69 214 2.0 14.0 0.00 0.00 0.00 72 1010.7
20260506125006 68 210 2.0 14.0 0.00 0.00 0.00 72 1010.8
20260506124506 68 233 1.0 14.0 0.00 0.00 0.00 73 1010.7
20260506124005 67 224 3.0 14.0 0.00 0.00 0.00 73 1010.7
20260506123505 67 192 2.0 14.0 0.00 0.00 0.00 74 1010.7
20260506123005 67 231 2.0 14.0 0.00 0.00 0.00 74 1010.8
20260506122505 67 226 1.0 14.0 0.00 0.00 0.00 74 1010.9
20260506122005 67 222 2.0 14.0 0.00 0.00 0.00 74 1010.8
20260506121505 67 224 5.0 14.0 0.00 0.00 0.00 73 1010.8
20260506121004 67 223 3.0 14.0 0.00 0.00 0.00 73 1010.8
20260506120504 67 212 2.0 14.0 0.00 0.00 0.00 73 1010.9
20260506120004 68 232 2.0 14.0 0.00 0.00 0.00 73 1011.0
20260506115504 68 229 2.0 14.0 0.00 0.00 0.00 73 1011.1
20260506115004 68 223 2.0 14.0 0.00 0.00 0.00 73 1011.0
20260506114504 68 141 2.0 14.0 0.00 0.00 0.00 73 1010.8
20260506114004 67 242 1.0 14.0 0.00 0.00 0.00 74 1011.1
20260506113503 67 209 3.0 14.0 0.00 0.00 0.00 75 1011.1
20260506113003 66 192 2.0 14.0 0.00 0.00 0.00 77 1011.1
20260506112503 65 235 2.0 14.0 0.00 0.00 0.00 77 1011.0
20260506112003 65 209 2.0 14.0 0.00 0.00 0.00 78 1011.2
20260506111503 65 215 2.0 14.0 0.00 0.00 0.00 78 1011.0
20260506111003 65 221 1.0 14.0 0.00 0.00 0.00 79 1011.1
20260506110503 64 216 2.0 14.0 0.00 0.00 0.00 79 1011.0
20260506110002 64 222 1.0 14.0 0.00 0.00 0.00 80 1010.9
20260506105502 64 215 2.0 14.0 0.00 0.00 0.00 81 1011.0
20260506105002 63 230 1.0 14.0 0.00 0.00 0.00 81 1010.9
20260506104502 63 214 1.0 14.0 0.00 0.00 0.00 81 1011.0
20260506104002 63 218 2.0 14.0 0.00 0.00 0.00 81 1011.1
20260506103502 63 225 2.0 14.0 0.00 0.00 0.00 81 1011.0
20260506103001 63 217 2.0 14.0 0.00 0.00 0.00 81 1011.0
20260506102501 63 202 2.0 14.0 0.00 0.00 0.00 82 1010.9
20260506102001 63 246 3.0 14.0 0.00 0.00 0.00 82 1011.0
20260506101501 63 220 2.0 14.0 0.00 0.00 0.00 82 1010.8
20260506101001 63 216 2.0 14.0 0.00 0.00 0.00 82 1010.8
20260506100501 63 215 1.0 14.0 0.00 0.00 0.00 82 1010.8
20260506100001 63 193 1.0 14.0 0.00 0.00 0.00 82 1010.8
20260506095501 63 223 2.0 14.0 0.00 0.00 0.00 82 1010.7
20260506095001 63 224 3.0 14.0 0.00 0.00 0.00 82 1010.7
20260506094500 63 203 3.0 14.0 0.00 0.00 0.00 82 1010.8
20260506094000 63 219 1.0 14.0 0.00 0.00 0.00 82 1010.8
20260506093500 63 218 2.0 14.0 0.00 0.00 0.00 82 1010.8
20260506093000 63 214 2.0 14.0 0.00 0.00 0.00 82 1010.8
20260506092500 63 208 1.0 14.0 0.00 0.00 0.00 82 1010.9
20260506092000 63 214 2.0 14.0 0.00 0.00 0.00 82 1010.9
20260506091459 63 218 3.0 14.0 0.00 0.00 0.00 82 1010.9
20260506090959 63 269 2.0 14.0 0.00 0.00 0.00 82 1010.9
20260506090459 63 211 2.0 14.0 0.00 0.00 0.00 82 1010.9
20260506085959 63 214 1.0 14.0 0.00 0.00 0.00 81 1010.9
20260506085459 64 205 1.0 14.0 0.00 0.00 0.00 81 1011.0
20260506084959 64 227 2.0 14.0 0.00 0.00 0.00 81 1011.0
20260506084459 64 259 2.0 14.0 0.00 0.00 0.00 81 1011.0
20260506083958 64 219 3.0 14.0 0.00 0.00 0.00 81 1011.0
20260506083458 64 196 5.0 14.0 0.00 0.00 0.00 81 1011.0
20260506082958 64 211 5.0 12.0 0.00 0.00 0.00 81 1011.0
20260506082458 64 224 2.0 12.0 0.00 0.00 0.00 81 1011.1
20260506081958 64 240 2.0 12.0 0.00 0.00 0.00 81 1011.2
20260506081458 64 198 2.0 12.0 0.00 0.00 0.00 81 1011.2
20260506080957 64 206 1.0 12.0 0.00 0.00 0.00 81 1011.3
20260506080457 64 223 2.0 12.0 0.00 0.00 0.00 81 1011.2
20260506073456 64 192 2.0 12.0 0.00 0.00 0.00 80 1011.2
20260506072956 64 222 1.0 12.0 0.00 0.00 0.00 80 1011.2
20260506072456 64 252 1.0 12.0 0.00 0.00 0.00 80 1011.3
20260506071956 64 215 2.0 12.0 0.00 0.00 0.00 79 1011.4
20260506071456 64 213 1.0 12.0 0.00 0.00 0.00 79 1011.4
20260506070956 65 196 2.0 12.0 0.00 0.00 0.00 78 1011.5
20260506070456 65 209 3.0 12.0 0.00 0.00 0.00 78 1011.5
20260506062454 66 214 3.0 12.0 0.00 0.00 0.00 76 1011.4
20260506061954 66 224 3.0 12.0 0.00 0.00 0.00 76 1011.3
20260506061454 66 213 2.0 12.0 0.00 0.00 0.00 75 1011.3
20260506060954 66 211 3.0 12.0 0.00 0.00 0.00 75 1011.2
20260506060454 66 205 3.0 12.0 0.00 0.00 0.00 74 1011.3
20260506050952 67 222 2.0 12.0 0.00 0.00 0.00 72 1011.7
20260506050452 67 228 3.0 12.0 0.00 0.00 0.00 72 1011.7
20260506044951 67 215 5.0 11.0 0.00 0.00 0.00 71 1011.7
20260506044451 67 221 2.0 11.0 0.00 0.00 0.00 71 1011.8
20260506043951 67 218 2.0 11.0 0.00 0.00 0.00 71 1011.8
20260506043451 67 227 5.0 11.0 0.00 0.00 0.00 71 1011.7
20260506042951 67 273 2.0 11.0 0.00 0.00 0.00 71 1011.7
20260506042451 67 240 2.0 11.0 0.00 0.00 0.00 71 1011.7
20260506041951 67 218 2.0 11.0 0.00 0.00 0.00 70 1011.7
20260506041450 67 225 2.0 11.0 0.00 0.00 0.00 70 1011.8
20260506040950 67 215 3.0 11.0 0.00 0.00 0.00 70 1011.8
20260506040450 67 237 5.0 11.0 0.00 0.00 0.00 70 1011.8
20260506035950 68 232 6.0 20.0 0.00 0.00 0.00 69 1011.7
20260506035450 68 215 3.0 20.0 0.00 0.00 0.00 69 1011.7
20260506034950 68 220 5.0 20.0 0.00 0.00 0.00 68 1011.8
20260506034450 68 216 2.0 20.0 0.00 0.00 0.00 68 1011.8
20260506033949 68 236 5.0 20.0 0.00 0.00 0.00 67 1011.8
20260506033449 68 248 3.0 20.0 0.00 0.00 0.00 67 1011.7
20260506032949 68 230 2.0 20.0 0.00 0.00 0.00 67 1011.7
20260506032449 68 213 3.0 20.0 0.00 0.00 0.00 66 1011.7
20260506031949 69 197 1.0 20.0 0.00 0.00 0.00 66 1011.7
20260506031449 69 213 3.0 20.0 0.00 0.00 0.00 65 1011.7
20260506030948 69 243 3.0 20.0 0.00 0.00 0.00 65 1011.6
20260506030448 69 235 3.0 20.0 0.00 0.00 0.00 65 1011.6
20260506025948 69 220 2.0 20.0 0.00 0.00 0.00 64 1011.7
20260506025448 69 224 5.0 20.0 0.00 0.00 0.00 64 1011.5
20260506024948 69 219 5.0 20.0 0.00 0.00 0.00 64 1011.6
20260506024448 69 228 2.0 20.0 0.00 0.00 0.00 64 1011.7
20260506023948 69 222 3.0 20.0 0.00 0.00 0.00 64 1011.7
20260506023448 69 203 3.0 20.0 0.00 0.00 0.00 64 1011.7
20260506022947 69 213 2.0 20.0 0.00 0.00 0.00 64 1011.7
20260506022447 69 219 3.0 20.0 0.00 0.00 0.00 64 1011.7
20260506021947 69 220 5.0 20.0 0.00 0.00 0.00 63 1011.6
20260506021447 69 221 5.0 20.0 0.00 0.00 0.00 63 1011.5
20260506020947 69 205 5.0 20.0 0.00 0.00 0.00 63 1011.5
20260506020447 69 226 5.0 20.0 0.00 0.00 0.00 63 1011.4
20260506015947 69 226 1.0 20.0 0.00 0.00 0.00 63 1011.5
20260506015416 69 237 2.0 20.0 0.00 0.00 0.00 63 1011.5
20260506014916 69 215 2.0 20.0 0.00 0.00 0.00 63 1011.5
20260506014416 69 231 2.0 20.0 0.00 0.00 0.00 63 1011.4
20260506013916 70 210 3.0 20.0 0.00 0.00 0.00 63 1011.4
20260506013416 70 220 5.0 20.0 0.00 0.00 0.00 62 1011.3
20260506012916 70 258 2.0 20.0 0.00 0.00 0.00 62 1011.3
20260506012415 70 204 3.0 20.0 0.00 0.00 0.00 62 1011.2
20260506011915 70 213 2.0 20.0 0.00 0.00 0.00 62 1011.1
20260506011415 70 233 2.0 20.0 0.00 0.00 0.00 62 1011.2
20260506010915 71 229 2.0 20.0 0.00 0.00 0.00 61 1011.2
20260506010415 71 121 1.0 20.0 0.00 0.00 0.00 61 1011.1
20260506005915 71 222 2.0 20.0 0.00 0.00 0.00 60 1010.9
20260506005415 71 227 2.0 20.0 0.00 0.00 0.00 60 1011.0
20260506004914 71 232 3.0 20.0 0.00 0.00 0.00 59 1010.9
20260506004414 72 214 3.0 20.0 0.00 0.00 0.00 59 1010.9
20260506003914 72 226 2.0 20.0 0.00 0.00 0.00 58 1010.7
20260506003414 73 215 2.0 20.0 0.00 0.00 0.00 57 1010.8
20260506002914 74 186 2.0 20.0 0.00 0.00 0.00 54 1010.6
20260506002414 75 227 2.0 20.0 0.00 0.00 0.00 50 1010.5
20260506001913 76 242 3.0 20.0 0.00 0.00 0.00 46 1010.3
20260506001413 76 231 3.0 20.0 0.00 0.00 0.00 46 1010.2
20260506000913 77 226 2.0 20.0 0.00 0.00 0.00 46 1010.3
20260506000413 77 211 5.0 20.0 0.00 0.00 0.00 45 1010.2
20260505235913 77 257 3.0 20.0 0.00 0.00 0.00 45 1010.1
20260505235413 77 307 2.0 20.0 0.00 0.00 0.00 45 1010.1
20260505234912 77 231 2.0 20.0 0.00 0.00 0.00 45 1010.2
20260505234412 78 218 3.0 20.0 0.00 0.00 0.00 44 1010.0
20260505233912 78 234 3.0 20.0 0.00 0.00 0.00 43 1009.8
20260505233412 78 244 2.0 20.0 0.00 0.00 0.00 43 1009.8
20260505232912 78 216 3.0 20.0 0.00 0.00 0.00 42 1009.7
20260505232412 79 225 3.0 20.0 0.00 0.00 0.00 41 1009.6
20260505231912 79 252 2.0 20.0 0.00 0.00 0.00 40 1009.5
20260505231411 79 231 5.0 20.0 0.00 0.00 0.00 40 1009.5
20260505230911 80 231 3.0 20.0 0.00 0.00 0.00 40 1009.4
20260505230411 80 219 3.0 20.0 0.00 0.00 0.00 39 1009.4
20260505225911 80 231 5.0 20.0 0.00 0.00 0.00 39 1009.4
20260505225411 80 244 3.0 20.0 0.00 0.00 0.00 38 1009.4
20260505224911 81 243 3.0 20.0 0.00 0.00 0.00 36 1009.3
20260505224411 81 233 5.0 20.0 0.00 0.00 0.00 36 1009.3
20260505223910 81 222 2.0 20.0 0.00 0.00 0.00 37 1009.3
20260505223410 82 284 2.0 20.0 0.00 0.00 0.00 36 1009.3
20260505222910 83 244 3.0 20.0 0.00 0.00 0.00 34 1009.2
20260505222410 83 245 1.0 20.0 0.00 0.00 0.00 32 1009.1
20260505221910 83 289 3.0 20.0 0.00 0.00 0.00 31 1009.1
20260505221410 83 244 3.0 20.0 0.00 0.00 0.00 32 1009.0
20260505220910 83 281 3.0 20.0 0.00 0.00 0.00 35 1009.1
20260505220409 83 213 3.0 20.0 0.00 0.00 0.00 35 1008.9
20260505215909 83 223 7.0 20.0 0.00 0.00 0.00 35 1008.9
20260505215409 83 231 5.0 20.0 0.00 0.00 0.00 35 1008.9
20260505214909 84 219 5.0 20.0 0.00 0.00 0.00 35 1008.8
20260505214409 84 263 3.0 20.0 0.00 0.00 0.00 35 1008.8
20260505213909 84 199 5.0 20.0 0.00 0.00 0.00 34 1008.9
20260505213409 84 243 3.0 20.0 0.00 0.00 0.00 35 1008.8
20260505212908 84 223 3.0 18.0 0.00 0.00 0.00 36 1008.8
20260505212408 84 275 3.0 18.0 0.00 0.00 0.00 35 1008.9
20260505211908 85 222 7.0 18.0 0.00 0.00 0.00 35 1008.8
20260505211408 85 239 3.0 18.0 0.00 0.00 0.00 35 1008.8
20260505210908 85 217 3.0 18.0 0.00 0.00 0.00 34 1008.8
20260505210408 85 250 7.0 18.0 0.00 0.00 0.00 34 1008.6
20260505205908 85 225 6.0 18.0 0.00 0.00 0.00 34 1008.6
20260505205407 85 262 3.0 18.0 0.00 0.00 0.00 34 1008.5
20260505204907 85 230 6.0 18.0 0.00 0.00 0.00 34 1008.6
20260505204407 85 274 7.0 18.0 0.00 0.00 0.00 33 1008.6
20260505203907 85 242 6.0 18.0 0.00 0.00 0.00 33 1008.7
20260505203407 86 235 3.0 18.0 0.00 0.00 0.00 33 1008.8
20260505202907 86 223 6.0 18.0 0.00 0.00 0.00 32 1008.9
20260505202406 86 233 3.0 18.0 0.00 0.00 0.00 32 1008.8
20260505201906 86 228 7.0 18.0 0.00 0.00 0.00 32 1008.8
20260505201406 85 230 3.0 18.0 0.00 0.00 0.00 32 1008.9
20260505200906 86 166 2.0 18.0 0.00 0.00 0.00 32 1009.0
20260505200406 86 242 5.0 18.0 0.00 0.00 0.00 32 1008.8
20260505195906 86 251 5.0 18.0 0.00 0.00 0.00 32 1008.8
20260505195406 86 219 5.0 18.0 0.00 0.00 0.00 33 1008.9
20260505194905 86 220 5.0 18.0 0.00 0.00 0.00 32 1009.0
20260505194405 86 265 5.0 18.0 0.00 0.00 0.00 32 1009.1
20260505193905 86 238 2.0 18.0 0.00 0.00 0.00 32 1009.1
20260505193405 86 235 5.0 18.0 0.00 0.00 0.00 32 1009.1
20260505192905 86 217 3.0 18.0 0.00 0.00 0.00 32 1009.3
20260505192405 86 244 3.0 18.0 0.00 0.00 0.00 33 1009.3
20260505191905 86 251 5.0 18.0 0.00 0.00 0.00 33 1009.5
20260505191404 86 221 5.0 18.0 0.00 0.00 0.00 34 1009.6
20260505190904 86 218 6.0 18.0 0.00 0.00 0.00 34 1009.6
20260505190405 86 198 5.0 18.0 0.00 0.00 0.00 35 1009.7
20260505185904 86 208 5.0 18.0 0.00 0.00 0.00 36 1009.9
20260505185404 85 223 3.0 18.0 0.00 0.00 0.00 36 1009.9
20260505184904 86 205 2.0 13.0 0.00 0.00 0.00 36 1009.9
20260505184404 85 244 5.0 13.0 0.00 0.00 0.00 36 1010.0
20260505183903 85 210 6.0 13.0 0.00 0.00 0.00 37 1010.1
20260505183403 86 259 3.0 13.0 0.00 0.00 0.00 38 1010.1
20260505182903 86 257 5.0 13.0 0.00 0.00 0.00 37 1010.2